• En España
  • Lista de países
  • Para 7 días
  • Temperatura del agua
  • Mapa Satelital
  • El tiempo en el mapa
  • Informadores
  • user-avatar
    Iniciar sesión

    Tiempo cada hora Debki

    Hoy, 23 Septiembre, Domingo

    Tiempo Temperatura Precipitaciones Viento Presión Humedad
    00:00 +9°C° 0.2 mm 10 mps 757 mmHg 77%
    01:00 +8°C° 0 mm 10 mps 757 mmHg 79%
    02:00 +8°C° 0.3 mm 11 mps 757 mmHg 80%
    03:00 +8°C° 0.3 mm 11 mps 757 mmHg 80%
    04:00 +8°C° 0.3 mm 11 mps 757 mmHg 81%
    05:00 +8°C° 0.3 mm 10 mps 757 mmHg 81%
    06:00 +8°C° 0.3 mm 10 mps 757 mmHg 81%
    07:00 +9°C° 0.3 mm 10 mps 757 mmHg 81%
    08:00 +9°C° 0.3 mm 10 mps 757 mmHg 78%
    09:00 +11°C° 0.3 mm 10 mps 757 mmHg 74%
    10:00 +12°C° 0.3 mm 9 mps 757 mmHg 71%
    11:00 +12°C° 0.2 mm 9 mps 757 mmHg 68%
    12:00 +13°C° 0.2 mm 9 mps 756 mmHg 65%
    13:00 +15°C° 0.2 mm 9 mps 756 mmHg 61%
    14:00 +13°C° 0.2 mm 8 mps 756 mmHg 63%
    15:00 +13°C° 0.2 mm 8 mps 756 mmHg 64%
    16:00 +13°C° 0.2 mm 8 mps 755 mmHg 65%
    17:00 +12°C° 0.2 mm 7 mps 755 mmHg 69%
    18:00 +11°C° 0.2 mm 6 mps 755 mmHg 72%
    19:00 +10°C° 0.2 mm 6 mps 754 mmHg 76%
    20:00 +10°C° 0 mm 6 mps 754 mmHg 77%
    21:00 +10°C° 0 mm 6 mps 754 mmHg 79%
    22:00 +9°C° 0 mm 5 mps 754 mmHg 80%
    23:00 +9°C° 0.2 mm 6 mps 754 mmHg 79%

    Mañana, 24 Septiembre, Lunes

    Tiempo Temperatura Precipitaciones Viento Presión Humedad
    00:00 +10°C° 0.2 mm 6 mps 754 mmHg 78%
    01:00 +10°C° 0.2 mm 6 mps 754 mmHg 77%
    02:00 +9°C° 0.1 mm 6 mps 754 mmHg 77%
    03:00 +9°C° 0.1 mm 7 mps 754 mmHg 78%
    04:00 +9°C° 0.1 mm 7 mps 755 mmHg 78%
    05:00 +9°C° 0.1 mm 7 mps 755 mmHg 77%
    06:00 +9°C° 0.1 mm 7 mps 755 mmHg 75%
    07:00 +10°C° 0.1 mm 8 mps 756 mmHg 74%
    08:00 +11°C° 0.3 mm 8 mps 756 mmHg 69%
    09:00 +11°C° 0.3 mm 8 mps 757 mmHg 65%
    10:00 +12°C° 0.3 mm 9 mps 758 mmHg 60%
    11:00 +12°C° 0.8 mm 9 mps 758 mmHg 64%
    12:00 +11°C° 0.8 mm 10 mps 759 mmHg 67%
    13:00 +11°C° 0.8 mm 11 mps 760 mmHg 71%
    14:00 +9°C° 0.1 mm 10 mps 761 mmHg 68%
    15:00 +9°C° 0.1 mm 10 mps 762 mmHg 65%
    16:00 +9°C° 0.1 mm 10 mps 763 mmHg 62%
    17:00 +8°C° 0 mm 10 mps 763 mmHg 62%
    18:00 +8°C° 0 mm 9 mps 764 mmHg 61%
    19:00 +7°C° 0 mm 9 mps 765 mmHg 60%
    20:00 +7°C° 0.1 mm 9 mps 765 mmHg 58%
    21:00 +7°C° 0.1 mm 9 mps 766 mmHg 56%
    22:00 +7°C° 0.1 mm 9 mps 766 mmHg 55%
    23:00 +7°C° 0.1 mm 9 mps 767 mmHg 54%

    Pasado mañana, 25 Septiembre, Martes

    Tiempo Temperatura Precipitaciones Viento Presión Humedad
    00:00 +7°C° 0.1 mm 9 mps 767 mmHg 54%
    01:00 +6°C° 0.1 mm 9 mps 768 mmHg 54%
    02:00 +6°C° 0.1 mm 10 mps 768 mmHg 54%
    03:00 +6°C° 0.1 mm 10 mps 768 mmHg 54%
    04:00 +6°C° 0.1 mm 10 mps 769 mmHg 54%
    05:00 +6°C° 0 mm 10 mps 769 mmHg 54%
    06:00 +6°C° 0 mm 10 mps 770 mmHg 54%
    07:00 +7°C° 0 mm 10 mps 771 mmHg 54%
    08:00 +8°C° 0 mm 10 mps 771 mmHg 50%
    09:00 +9°C° 0 mm 10 mps 772 mmHg 46%
    10:00 +11°C° 0 mm 10 mps 772 mmHg 41%
    11:00 +11°C° 0 mm 9 mps 773 mmHg 40%
    12:00 +12°C° 0 mm 9 mps 773 mmHg 39%
    13:00 +12°C° 0 mm 8 mps 773 mmHg 38%
    14:00 +12°C° 0 mm 8 mps 773 mmHg 40%
    15:00 +11°C° 0 mm 7 mps 773 mmHg 42%
    16:00 +11°C° 0 mm 7 mps 773 mmHg 44%
    17:00 +10°C° 0 mm 6 mps 773 mmHg 51%
    18:00 +9°C° 0 mm 6 mps 774 mmHg 59%
    19:00 +8°C° 0 mm 6 mps 774 mmHg 66%
    20:00 +8°C° 0 mm 6 mps 774 mmHg 68%
    21:00 +8°C° 0 mm 6 mps 774 mmHg 70%
    22:00 +8°C° 0 mm 6 mps 774 mmHg 72%
    23:00 +8°C° 0 mm 6 mps 773 mmHg 75%

    26 Septiembre, Miércoles

    Tiempo Temperatura Precipitaciones Viento Presión Humedad
    00:00 +8°C° 0 mm 7 mps 773 mmHg 78%
    01:00 +6°C° 0 mm 7 mps 773 mmHg 80%
    02:00 +7°C° 0.1 mm 8 mps 772 mmHg 79%
    03:00 +7°C° 0.1 mm 8 mps 772 mmHg 78%
    04:00 +7°C° 0.1 mm 9 mps 772 mmHg 77%
    05:00 +7°C° 0.1 mm 9 mps 772 mmHg 76%
    06:00 +7°C° 0.1 mm 10 mps 771 mmHg 74%
    07:00 +7°C° 0.1 mm 11 mps 771 mmHg 72%
    08:00 +9°C° 0 mm 11 mps 770 mmHg 67%
    09:00 +11°C° 0 mm 11 mps 770 mmHg 63%
    10:00 +12°C° 0 mm 12 mps 770 mmHg 58%
    11:00 +12°C° 0.2 mm 12 mps 769 mmHg 60%
    12:00 +12°C° 0.2 mm 13 mps 768 mmHg 62%
    13:00 +12°C° 0.2 mm 13 mps 768 mmHg 64%
    14:00 +12°C° 0.1 mm 13 mps 767 mmHg 62%
    15:00 +12°C° 0.1 mm 13 mps 766 mmHg 60%
    16:00 +12°C° 0.1 mm 13 mps 766 mmHg 58%
    17:00 +12°C° 0.2 mm 14 mps 765 mmHg 60%
    18:00 +12°C° 0.2 mm 14 mps 765 mmHg 62%
    19:00 +12°C° 0.2 mm 14 mps 764 mmHg 64%
    20:00 +12°C° 0.1 mm 14 mps 764 mmHg 62%
    21:00 +13°C° 0.1 mm 14 mps 763 mmHg 60%
    22:00 +13°C° 0.1 mm 14 mps 762 mmHg 59%
    23:00 +13°C° 0.1 mm 14 mps 762 mmHg 64%

    27 Septiembre, Jueves

    Tiempo Temperatura Precipitaciones Viento Presión Humedad
    00:00 +13°C° 0.1 mm 14 mps 762 mmHg 70%
    01:00 +14°C° 0.1 mm 14 mps 761 mmHg 75%
    02:00 +14°C° 0.1 mm 14 mps 761 mmHg 79%
    03:00 +14°C° 0.1 mm 13 mps 761 mmHg 82%
    04:00 +14°C° 0.1 mm 13 mps 761 mmHg 86%
    05:00 +15°C° 0.2 mm 13 mps 761 mmHg 85%
    06:00 +15°C° 0.2 mm 13 mps 761 mmHg 85%
    07:00 +15°C° 0.2 mm 12 mps 761 mmHg 84%
    08:00 +15°C° 0 mm 12 mps 762 mmHg 79%
    09:00 +15°C° 0 mm 12 mps 762 mmHg 74%
    10:00 +16°C° 0 mm 11 mps 763 mmHg 69%
    11:00 +17°C° 0 mm 11 mps 763 mmHg 65%
    12:00 +17°C° 0 mm 10 mps 763 mmHg 61%
    13:00 +17°C° 0 mm 10 mps 763 mmHg 57%
    14:00 +17°C° 0 mm 10 mps 763 mmHg 59%
    15:00 +16°C° 0 mm 10 mps 763 mmHg 61%
    16:00 +16°C° 0 mm 9 mps 763 mmHg 63%
    17:00 +15°C° 0 mm 9 mps 763 mmHg 70%
    18:00 +15°C° 0 mm 8 mps 763 mmHg 77%
    19:00 +14°C° 0 mm 7 mps 763 mmHg 84%
    20:00 +13°C° 0.1 mm 8 mps 763 mmHg 85%
    21:00 +15°C° 0.1 mm 9 mps 762 mmHg 87%
    22:00 +14°C° 0.1 mm 10 mps 761 mmHg 89%
    23:00 +14°C° 0.3 mm 11 mps 761 mmHg 88%

    28 Septiembre, Viernes

    Tiempo Temperatura Precipitaciones Viento Presión Humedad
    00:00 +15°C° 0.3 mm 12 mps 760 mmHg 87%
    01:00 +15°C° 0.3 mm 13 mps 759 mmHg 86%
    02:00 +15°C° 0.5 mm 13 mps 760 mmHg 86%
    03:00 +15°C° 0.5 mm 13 mps 760 mmHg 85%
    04:00 +15°C° 0.5 mm 12 mps 760 mmHg 85%
    05:00 +14°C° 0.1 mm 11 mps 761 mmHg 83%
    06:00 +13°C° 0.1 mm 9 mps 761 mmHg 81%
    07:00 +12°C° 0.1 mm 7 mps 762 mmHg 79%
    08:00 +12°C° 0 mm 7 mps 763 mmHg 74%
    09:00 +14°C° 0 mm 6 mps 763 mmHg 69%
    10:00 +15°C° 0 mm 6 mps 764 mmHg 63%
    11:00 +15°C° 0 mm 6 mps 764 mmHg 61%
    12:00 +15°C° 0 mm 5 mps 764 mmHg 58%
    13:00 +16°C° 0 mm 5 mps 765 mmHg 56%
    14:00 +15°C° 0 mm 5 mps 765 mmHg 57%
    15:00 +15°C° 0 mm 5 mps 765 mmHg 57%
    16:00 +14°C° 0 mm 5 mps 765 mmHg 58%
    17:00 +13°C° 0 mm 4 mps 765 mmHg 63%
    18:00 +12°C° 0 mm 4 mps 765 mmHg 67%
    19:00 +11°C° 0 mm 3 mps 765 mmHg 72%
    20:00 +11°C° 0 mm 3 mps 766 mmHg 72%
    21:00 +12°C° 0 mm 2 mps 766 mmHg 72%
    22:00 +12°C° 0 mm 2 mps 766 mmHg 72%
    23:00 +12°C° 0 mm 2 mps 766 mmHg 71%
    Mostrar más